Temperature
18 18 18 18 18 18 18 18 18 18 18 18 18 18 18 18 18 18 18 18 18 18 18 18 18 18 18 18 18 18 18 18 18 17 17 17 18 18 18 18 18 18 17
18 18 18 18 18 18 18 18 18 18 18 18 18 18 18 18 18 18 18 18 18 18 18 18 18 18 17 17 17 17 17 17 17 17 17 17 17 17 17 17 17 17 17
18 18 18 18 18 18 18 18 18 18 18 18 18 18 18 18 17 17 17 17 17 17 17 17 17 17 17 17 17 17 17 17 17 17 17 17 17 17 17 17 17 17 17
18 18 18 18 18 18 18 18 18 18 18 18 18 17 17 17 17 17 17 17 17 17 17 17 17 17 17 17 17 17 17 17 17 17 17 17 17 17 17 17 17 17 17
18 18 18 18 18 18 18 18 18 18 18 17 17 17 17 17 17 17 17 17 17 17 17 17 17 17 17 17 17 17 17 17 17 17 17 17 17 17 17 17 17 17 17
18 18 18 18 18 18 18 18 18 18 18 17 17 17 17 17 17 17 17 17 17 17 17 17 17 17 17 17 17 17 17 17 17 17 17 17 17 17 17 17 17 17 17
18 18 18 18 17 17 17 17 18 18 18 17 17 17 17 17 17 17 17 17 17 17 17 17 17 17 17 17 17 17 17 17 16 17 17 17 16 16 16 16 16 16 16
18 18 18 17 17 17 17 17 17 17 17 17 17 17 17 17 17 17 17 17 17 16 16 16 17 17 16 16 16 16 16 16 16 16 16 16 16 16 16 16 16 16 16
18 18 18 18 17 17 17 17 17 17 17 17 17 17 17 17 17 17 17 16 16 16 16 16 16 16 16 16 16 16 16 16 16 16 16 16 16 16 16 16 16 16 16
18 18 17 18 17 17 17 17 17 17 17 17 17 17 17 17 17 17 16 16 16 16 16 16 16 16 16 16 16 16 16 16 16 16 16 16 16 16 16 16 16 16 16
18 18 17 17 17 17 17 17 17 17 17 17 17 17 17 17 17 16 16 16 16 16 16 16 16 16 16 16 16 16 16 16 16 16 16 16 16 16 16 16 15 16 15
18 18 17 17 17 17 17 17 17 17 17 17 17 17 17 17 16 16 16 16 16 16 16 16 16 16 16 16 16 16 16 16 16 16 16 16 16 16 16 15 15 15 15
18 18 18 18 17 17 17 17 17 17 17 17 17 17 17 16 16 16 16 16 16 16 16 16 16 16 16 16 16 16 16 16 16 16 16 16 16 15 15 15 15 15 15
18 18 18 18 17 17 17 17 17 17 17 17 17 17 16 16 16 16 16 16 16 16 16 16 16 16 16 16 15 15 15 15 15 15 15 15 15 15 15 15 15 15 15
18 18 18 18 18 17 17 17 17 17 17 17 17 17 16 16 16 16 16 16 16 16 15 15 15 15 15 15 15 15 15 15 15 15 15 15 15 15 15 15 15 15 15
18 18 18 18 17 17 17 17 17 17 17 17 17 16 16 16 16 16 16 16 15 15 15 15 15 15 15 15 15 15 15 15 15 15 15 15 15 15 15 15 15 15 15
18 18 18 18 17 17 17 17 17 17 17 16 16 16 16 16 16 16 16 16 15 15 15 15 15 15 15 15 15 15 15 15 15 15 15 15 14 15 14 14 14 14 14
18 18 18 18 17 17 17 17 17 17 16 16 16 16 16 16 16 16 16 15 15 15 15 15 15 15 15 15 15 15 15 15 14 14 14 14 14 14 14 14 14 14 14
18 18 18 17 17 17 17 17 17 16 16 16 16 16 16 16 16 16 15 15 15 15 15 15 15 15 15 15 14 14 14 14 14 14 14 14 14 14 14 14 14 14 14
18 18 18 17 17 17 17 16 16 16 16 16 16 16 16 16 16 15 15 15 15 15 15 15 15 14 15 14 14 14 14 14 14 14 14 14 14 14 14 14 14 14 14
18 18 18 17 17 17 17 16 16 16 16 16 16 16 16 16 15 15 15 15 15 15 15 15 15 14 14 14 14 14 14 14 14 13 14 14 13 13 13 13 13 14 14
18 18 17 17 17 17 16 16 16 16 16 16 16 15 15 15 15 15 15 15 15 15 15 15 15 14 14 14 14 14 13 13 13 13 13 13 13 13 13 13 13 13 13
18 17 17 17 17 16 16 16 16 16 15 15 15 15 15 15 15 15 15 15 15 15 15 15 14 14 14 14 14 14 13 13 13 13 13 13 13 13 13 13 13 13 13
18 17 17 17 16 16 16 16 16 16 16 15 15 15 15 15 15 15 15 15 14 14 14 14 14 14 14 14 14 14 14 13 13 13 13 13 13 13 13 13 13 13 12
17 17 17 17 16 16 16 16 16 15 15 15 15 15 15 15 15 15 14 14 14 14 14 14 14 14 14 14 14 14 14 13 13 13 12 12 13 12 12 12 12 12 12
17 17 16 16 16 16 16 16 15 15 15 15 15 15 15 14 14 14 14 14 14 14 14 14 14 14 13 13 13 13 13 13 13 13 12 12 12 12 12 12 12 12 12
Wind_Speed
1 1 3 5 6 6 7 7 8 8 8 9 9 9 10 10 10 10 10 10 10 10 10 10 10 10 10 10 10 10 9 9 9 9 8 7 7 7 7 7 7 7 8
2 2 4 6 6 6 7 7 7 7 8 8 8 9 9 9 9 9 10 10 10 10 10 10 10 10 10 10 9 9 9 10 9 9 8 7 7 7 7 7 7 6 7
3 3 4 6 6 7 7 7 7 7 7 7 8 8 9 9 9 8 9 9 10 10 10 9 9 9 9 9 9 8 8 9 9 9 8 7 6 6 6 7 6 7 7
4 4 4 6 7 7 7 7 7 7 7 7 7 8 8 8 8 9 10 10 10 10 9 9 9 9 9 9 9 9 8 8 8 8 7 6 5 6 6 6 6 7 7
4 4 4 5 6 6 6 6 7 7 6 7 8 8 8 8 8 9 9 10 10 9 9 9 9 9 9 9 9 9 9 9 8 8 7 6 5 5 5 6 6 7 7
3 3 3 5 6 6 5 5 6 6 6 7 7 7 7 8 9 9 9 9 9 9 9 9 9 9 9 9 9 8 8 8 8 8 7 5 4 4 5 6 6 7 7
3 3 3 5 5 6 5 5 5 6 6 6 6 6 7 7 8 9 9 8 8 8 9 9 9 9 10 10 9 8 8 9 8 7 6 5 4 5 5 5 6 7 7
3 3 2 3 4 4 4 4 4 4 5 5 5 5 6 6 7 8 8 8 8 8 8 8 8 9 9 9 9 9 9 8 6 5 5 5 5 5 6 6 6 7 7
3 3 2 2 2 2 3 3 3 3 4 4 5 5 5 5 6 6 6 6 6 6 7 7 8 9 9 9 10 10 9 8 7 5 5 4 5 6 7 6 6 6 6
2 2 2 2 2 2 1 1 2 2 2 3 4 5 5 5 5 5 5 5 6 6 7 8 9 9 9 10 10 9 9 8 7 5 4 4 5 6 7 7 6 6 6
1 1 1 1 1 1 1 1 1 2 2 4 4 5 5 5 4 4 5 6 6 7 8 9 9 9 10 10 10 10 9 7 6 5 4 4 5 5 7 7 7 7 7
2 2 1 1 0 1 1 2 2 3 4 4 4 5 5 5 4 4 6 6 7 7 8 9 9 9 9 9 9 9 7 7 6 5 4 4 4 5 7 7 7 7 6
3 2 2 2 2 1 0 1 2 2 3 3 3 3 4 4 4 5 5 5 6 7 7 8 8 8 8 7 7 7 7 6 6 5 6 6 5 6 7 8 8 7 6
2 2 2 2 2 1 1 1 1 1 1 1 1 2 3 3 3 3 3 4 4 4 5 5 5 6 7 7 7 7 7 6 5 6 7 8 8 8 8 7 7 7 6
2 2 2 2 2 2 2 2 2 1 1 1 2 2 3 3 2 2 2 4 4 5 4 4 4 5 5 6 6 6 6 6 7 7 7 9 10 9 9 8 8 8 8
3 2 2 2 2 2 2 2 2 2 2 2 2 2 3 3 3 2 2 3 4 4 5 4 4 4 4 4 5 5 5 6 7 7 8 8 10 10 10 9 8 8 8
3 2 2 2 2 2 3 3 3 3 3 2 2 2 3 3 3 3 3 2 3 4 5 5 5 5 4 4 4 5 5 6 7 7 8 8 8 9 10 10 9 9 9
3 3 2 2 3 2 3 3 3 3 3 2 2 2 3 4 4 4 3 2 3 5 4 3 3 3 3 3 3 3 4 5 6 7 8 8 8 8 9 10 10 10 9
3 3 2 2 3 3 3 4 4 3 3 3 3 3 4 4 4 5 3 3 4 4 3 3 3 3 3 3 3 4 4 4 4 6 7 8 8 8 8 9 10 11 10
3 3 3 3 3 3 3 3 3 3 2 3 3 2 4 4 5 5 4 3 4 3 2 3 4 3 3 3 5 5 5 4 5 5 5 6 7 8 8 8 8 8 10
2 3 3 3 3 3 2 2 2 1 1 1 2 2 3 4 5 5 3 3 3 3 3 3 3 4 3 2 3 4 4 5 5 4 4 5 6 7 8 8 7 7 7
2 2 2 2 3 3 2 2 2 2 1 1 1 2 2 3 4 4 4 3 3 3 3 3 3 3 1 1 2 2 2 3 4 4 3 3 4 5 6 7 7 7 7
2 2 3 2 2 3 3 3 3 3 2 2 1 1 1 2 3 4 4 4 3 3 3 3 3 4 2 0 1 3 2 1 1 3 3 3 3 3 3 5 6 6 5
3 2 2 2 2 3 4 4 4 3 2 1 1 0 1 2 3 4 4 4 3 3 3 3 3 2 3 1 0 1 1 3 2 0 2 2 3 3 3 3 4 5 5
2 2 2 2 2 2 3 4 4 2 2 1 1 2 1 1 2 3 4 3 3 2 3 2 2 2 2 2 2 1 2 2 2 2 1 2 2 2 2 2 3 4 4
0 1 1 2 1 1 2 3 4 4 3 2 1 1 1 1 1 1 2 2 2 2 2 2 2 2 2 2 2 2 2 2 2 2 2 1 1 2 2 2 2 3 3
Wind_Direction
253 242 164 130 112 104 101 101 100 102 101 99 97 98 96 94 92 90 87 86 83 81 81 80 81 84 85 84 84 85 85 85 83 82 83 86 87 88 90 93 93 95 100
173 172 153 132 116 108 105 105 105 106 104 100 97 98 97 93 90 90 90 88 85 83 80 78 78 81 79 79 81 84 83 82 82 81 77 73 81 87 86 92 94 98 98
127 137 140 132 120 114 110 107 106 106 107 105 103 98 95 92 90 90 91 90 87 84 81 79 78 76 74 73 73 78 80 80 80 77 69 56 66 85 89 95 95 96 96
131 129 135 134 125 116 110 109 107 105 105 104 102 98 95 93 91 90 89 87 85 82 80 78 76 74 72 68 70 74 76 77 79 73 60 50 56 81 88 95 96 98 96
122 126 136 134 129 119 108 105 104 103 108 105 102 99 98 97 94 90 88 85 83 80 79 77 75 74 70 69 70 74 76 77 77 67 57 48 45 71 82 90 90 91 92
113 118 138 142 135 119 108 102 99 97 101 108 104 99 98 99 99 96 90 84 81 79 77 75 73 72 71 68 67 71 73 76 72 62 51 42 39 74 82 89 94 97 94
118 114 133 140 136 126 121 115 108 100 98 106 109 105 99 98 98 96 91 84 79 78 76 74 72 72 69 66 65 69 75 77 73 62 48 35 39 74 78 86 94 101 99
123 117 131 137 133 130 127 123 119 109 108 109 112 108 101 98 94 91 88 81 76 74 74 74 74 75 70 66 63 68 75 73 68 58 47 41 53 71 74 80 95 102 99
102 94 82 85 109 110 112 118 118 118 117 112 106 104 100 95 90 85 83 80 77 76 77 76 76 75 70 65 64 69 73 67 62 54 47 42 57 69 73 74 89 98 92
83 75 74 71 71 63 58 104 108 117 116 102 99 93 88 82 76 74 74 76 77 77 76 76 73 70 65 65 65 67 71 62 53 42 33 41 57 69 75 73 78 85 84
140 65 75 59 40 28 17 34 66 76 78 71 75 74 69 59 54 58 69 74 77 77 78 74 72 67 62 62 64 66 64 55 47 36 28 47 62 71 72 70 72 83 84
212 221 204 189 249 309 346 48 46 48 51 60 60 59 62 56 50 57 66 70 74 76 75 71 68 63 59 57 57 58 55 47 41 29 26 49 68 82 82 76 73 81 86
210 217 207 205 216 210 22 49 46 57 59 62 62 68 70 61 53 46 49 54 63 68 64 61 57 57 59 58 56 52 50 45 34 25 26 42 61 79 84 83 78 78 84
198 219 209 187 181 186 155 109 89 89 79 74 73 82 84 74 62 53 57 58 63 71 68 63 62 57 58 56 55 52 47 45 35 28 28 40 60 69 78 81 83 83 80
202 222 205 176 174 160 147 146 121 128 132 124 91 83 104 104 93 75 73 74 72 77 75 71 71 65 57 54 55 57 51 46 44 40 39 48 53 62 71 77 79 76 75
203 209 206 184 176 153 151 145 140 154 155 126 105 107 127 131 121 106 90 77 72 78 81 82 82 76 64 62 54 53 54 50 49 46 44 44 52 57 62 68 73 74 72
197 188 177 180 147 143 147 144 138 141 135 119 107 104 122 126 122 113 101 89 83 88 87 84 77 73 67 61 50 48 52 52 50 48 45 41 41 47 52 58 64 68 67
168 164 172 165 129 134 134 120 113 116 119 112 108 104 110 116 123 114 110 106 101 94 91 90 82 74 63 58 51 39 44 49 49 51 51 46 45 43 46 51 56 60 60
173 161 150 128 125 125 117 102 101 104 100 98 105 109 113 120 128 127 121 114 111 103 94 100 84 91 85 71 66 51 43 44 41 50 50 49 49 47 45 44 48 49 50
154 146 145 124 117 116 104 91 80 69 63 72 86 104 122 130 132 126 119 115 115 108 92 96 96 78 86 86 79 62 46 42 43 44 46 48 48 48 46 44 40 36 37
117 131 141 131 129 122 109 112 106 94 62 51 59 84 109 125 129 124 124 116 115 120 127 119 109 95 84 89 81 58 38 41 44 37 41 46 41 41 45 43 41 36 29
151 158 151 158 155 152 140 129 121 116 107 95 43 59 92 122 132 137 131 131 128 121 113 116 119 116 112 82 101 91 37 13 20 26 31 43 34 37 41 38 38 36 31
172 186 187 188 173 158 130 106 88 72 61 50 37 22 34 117 134 136 138 135 139 138 143 146 145 141 154 145 89 127 133 202 324 356 19 32 29 29 22 32 35 29 28
210 196 183 181 173 160 147 144 142 144 153 192 177 155 40 82 112 129 136 136 139 140 145 160 148 151 149 164 69 65 135 155 153 335 346 4 22 21 5 18 19 19 21
193 186 181 155 156 157 159 162 154 149 163 155 121 110 76 47 87 115 132 135 144 154 158 157 148 144 152 161 159 138 98 86 114 150 243 319 351 345 342 358 11 14 12
118 153 149 154 154 147 163 166 164 165 161 152 154 143 109 60 52 79 126 131 143 156 168 176 172 163 161 160 158 159 161 163 169 159 191 232 292 314 332 344 356 3 9
Height
1525 1525 1525 1525 1526 1526 1526 1526 1526 1526 1526 1526 1526 1526 1526 1526 1527 1527 1527 1526 1526 1526 1526 1527 1527 1527 1527 1528 1528 1528 1528 1528 1529 1529 1529 1530 1530 1530 1531 1531 1531 1531 1532
1526 1526 1526 1526 1527 1527 1527 1527 1527 1527 1527 1527 1527 1528 1528 1528 1528 1528 1528 1528 1528 1528 1528 1528 1528 1528 1529 1529 1529 1529 1529 1530 1530 1530 1530 1531 1531 1531 1531 1532 1532 1532 1532
1526 1527 1527 1527 1528 1528 1528 1528 1528 1528 1528 1528 1528 1529 1529 1529 1529 1529 1529 1529 1529 1529 1529 1529 1529 1530 1530 1530 1530 1530 1531 1531 1531 1531 1531 1531 1532 1532 1532 1532 1532 1532 1533
1527 1528 1528 1528 1529 1529 1529 1529 1529 1529 1529 1529 1530 1530 1530 1530 1530 1530 1530 1530 1530 1531 1530 1530 1531 1531 1531 1531 1532 1532 1532 1532 1532 1532 1532 1532 1532 1532 1532 1533 1533 1533 1533
1528 1529 1529 1530 1530 1530 1530 1530 1530 1530 1530 1531 1531 1531 1531 1531 1531 1532 1532 1532 1532 1532 1532 1532 1532 1532 1532 1533 1533 1533 1533 1533 1533 1533 1533 1533 1533 1533 1533 1533 1533 1533 1533
1530 1530 1530 1531 1531 1531 1531 1531 1532 1532 1532 1532 1532 1532 1532 1533 1533 1533 1533 1533 1533 1533 1533 1533 1533 1533 1533 1533 1533 1534 1534 1534 1534 1533 1533 1533 1533 1533 1533 1533 1533 1533 1533
1531 1531 1531 1532 1532 1532 1532 1533 1533 1533 1533 1533 1533 1534 1534 1534 1534 1534 1534 1535 1535 1535 1535 1535 1534 1534 1534 1534 1534 1534 1534 1534 1534 1534 1534 1534 1533 1533 1533 1533 1533 1533 1534
1532 1532 1533 1533 1533 1533 1534 1534 1534 1534 1534 1534 1535 1535 1535 1535 1535 1535 1536 1536 1536 1536 1536 1536 1536 1536 1535 1535 1535 1535 1535 1535 1534 1534 1534 1534 1534 1534 1533 1533 1534 1534 1534
1533 1534 1534 1534 1534 1535 1535 1535 1535 1535 1535 1535 1536 1536 1536 1537 1537 1537 1537 1537 1537 1537 1537 1537 1537 1537 1536 1536 1536 1536 1535 1535 1535 1535 1535 1534 1534 1534 1534 1534 1533 1534 1534
1535 1535 1535 1536 1536 1536 1536 1536 1536 1536 1536 1536 1537 1537 1537 1538 1538 1538 1538 1538 1538 1539 1539 1538 1538 1538 1538 1537 1537 1536 1536 1536 1536 1536 1535 1535 1535 1534 1534 1534 1533 1533 1534
1535 1536 1536 1537 1537 1537 1537 1537 1537 1537 1538 1537 1538 1538 1539 1539 1539 1539 1539 1540 1540 1540 1540 1539 1539 1539 1539 1538 1538 1538 1537 1537 1537 1536 1536 1536 1535 1535 1534 1534 1534 1533 1534
1536 1537 1537 1538 1538 1538 1538 1538 1538 1538 1539 1539 1539 1540 1540 1540 1540 1541 1541 1541 1541 1541 1541 1540 1540 1540 1540 1540 1539 1539 1538 1538 1537 1537 1536 1536 1536 1535 1535 1534 1534 1534 1534
1537 1537 1538 1538 1539 1539 1539 1539 1539 1540 1540 1540 1541 1541 1541 1541 1541 1541 1541 1541 1541 1541 1541 1541 1541 1541 1541 1540 1540 1540 1539 1539 1538 1538 1537 1537 1536 1536 1535 1535 1535 1534 1534
1537 1538 1538 1539 1539 1539 1540 1540 1540 1540 1541 1541 1542 1542 1542 1542 1542 1542 1542 1542 1542 1542 1542 1542 1542 1542 1542 1541 1541 1540 1540 1539 1539 1538 1538 1537 1537 1536 1536 1536 1535 1535 1535
1537 1538 1538 1539 1539 1540 1540 1540 1541 1541 1541 1542 1542 1542 1543 1543 1542 1543 1543 1543 1543 1543 1543 1543 1543 1542 1542 1542 1541 1541 1540 1540 1539 1539 1539 1538 1538 1537 1537 1537 1536 1536 1536
1537 1538 1538 1539 1539 1540 1540 1541 1541 1541 1542 1542 1543 1543 1543 1543 1543 1543 1543 1543 1543 1543 1543 1543 1543 1543 1543 1542 1542 1542 1541 1541 1540 1540 1540 1539 1539 1539 1538 1538 1538 1537 1537
1537 1538 1538 1539 1539 1540 1540 1540 1541 1541 1542 1542 1543 1543 1543 1543 1543 1543 1543 1543 1543 1543 1543 1543 1543 1543 1543 1543 1542 1542 1542 1541 1541 1541 1541 1541 1540 1540 1540 1540 1539 1539 1538
1537 1538 1538 1539 1539 1540 1540 1540 1541 1541 1542 1542 1542 1543 1543 1543 1543 1543 1543 1543 1543 1543 1543 1543 1543 1543 1543 1543 1543 1542 1542 1542 1542 1542 1542 1542 1541 1541 1541 1541 1540 1540 1539
1537 1537 1538 1539 1539 1539 1540 1540 1541 1541 1541 1542 1542 1542 1543 1543 1543 1543 1543 1543 1543 1543 1544 1544 1544 1544 1543 1543 1543 1543 1543 1543 1543 1543 1543 1542 1542 1542 1542 1542 1541 1541 1540
1537 1537 1538 1538 1539 1539 1539 1540 1540 1540 1541 1541 1542 1542 1542 1543 1543 1543 1543 1543 1543 1543 1543 1544 1544 1544 1544 1544 1543 1543 1543 1543 1543 1543 1543 1543 1543 1543 1543 1542 1542 1541 1541
1536 1536 1537 1537 1538 1538 1539 1539 1539 1539 1540 1540 1541 1542 1542 1542 1542 1543 1542 1543 1543 1543 1543 1544 1544 1544 1544 1544 1544 1544 1544 1544 1544 1544 1544 1544 1544 1543 1543 1542 1542 1542 1541
1535 1536 1536 1537 1537 1538 1539 1539 1539 1539 1539 1540 1541 1541 1541 1541 1542 1542 1542 1542 1542 1543 1543 1543 1543 1544 1544 1544 1544 1544 1544 1546 1545 1545 1544 1544 1544 1543 1543 1542 1542 1541 1541
1534 1535 1535 1536 1537 1537 1538 1538 1539 1538 1539 1539 1540 1540 1540 1540 1541 1541 1541 1541 1541 1542 1542 1542 1543 1543 1543 1544 1544 1545 1544 1544 1545 1545 1544 1544 1544 1543 1543 1542 1542 1541 1541
1533 1534 1535 1535 1536 1536 1537 1537 1537 1538 1538 1538 1538 1539 1539 1539 1539 1540 1540 1540 1540 1541 1541 1542 1542 1543 1543 1543 1544 1544 1544 1544 1544 1544 1544 1544 1544 1543 1542 1542 1541 1541 1540
1531 1532 1533 1534 1534 1535 1535 1536 1536 1536 1537 1537 1537 1538 1538 1538 1538 1538 1539 1539 1539 1539 1540 1540 1541 1541 1542 1542 1542 1542 1543 1543 1543 1543 1543 1543 1543 1542 1542 1541 1541 1540 1539
1530 1531 1532 1532 1533 1533 1534 1534 1535 1535 1535 1535 1536 1536 1536 1536 1536 1537 1537 1537 1538 1538 1539 1539 1540 1540 1540 1541 1541 1541 1542 1541 1541 1541 1541 1541 1541 1541 1541 1540 1540 1539 1539